www.pogodaiklimat.ru

Погода и климат >> Архив погоды >> Россия >> Кировская область >> Даровское


ПОГОДА в Даровском

  • Прогноз погоды в Даровском
  • Монитор погоды в Даровском
  • Климат города

АРХИВ ПОГОДЫ в Даровском

Время (UTC), дата Ветер
(напр.,м/с)
 
Видим.   Явления Облачность Т
(С)
Тd
(С)
f
(%)
Тe
(С)
Тes
(С)
Комфортность P
(гПа)
Po
(гПа)
Тmin
(С)
Tmax
(С)
R
(мм)
R24
(мм)
S
(см)
15 11.11 Ю 1-2
{3}
20 км 10/0
[Cs]
-9.8 -12.9 78 -12 -12 1052.3 1032.4 -5.3
18 11.11 Ю 1-2
{3}
н/о н/о -10.8 -13.5 80 -13 -13 1051.9 1032.0
21 11.11 Ю 1-2
{3}
н/о н/о -11.4 -14.1 80 -14 -14 1051.7 1031.7
00 12.11 Ю 1-2
{3}
н/о н/о -12.4 -14.8 82 -15 -15 1051.5 1031.4
03 12.11 Ю 2-3
{3}
20 км 4/0
[Ci fib]
-11.8 -14.5 80 -16 -16 1050.4 1030.4 -12.9
06 12.11 ЮЗ 2-4
{5}
20 км 6/0
[Cs]
-10.1 -13.7 75 -15 -14 1049.5 1029.6
09 12.11 ЮЗ 2-5
{6}
20 км 10/0
[Cs]
-6.0 -12.3 61 -10 -9 1048.6 1029.0
12 12.11 Ю 2-4
{7}
20 км 10/0
[Cs]
-4.9 -13.8 50 -9 -9 1047.0 1027.6
15 12.11 Ю 2-3
{5}
20 км 4/0
[Cs]
-7.2 -14.1 58 -11 -11 1046.8 1027.2 -4.4
18 12.11 Ю 2-3
{5}
н/о н/о -8.2 -13.0 68 -12 -12 1046.0 1026.3
21 12.11 Ю 2-5
{5}
н/о н/о -8.9 -12.7 74 -13 -13 1045.2 1025.5
00 13.11 Ю 2-6
{6}
н/о н/о -9.3 -13.2 73 -14 -14 1044.2 1024.5
03 13.11 Ю 2-4
{6}
20 км 3/0
[Ci fib]
-10.4 -14.0 75 -15 -15 1043.2 1023.4 -10.4
06 13.11 Ю 2-5
{5}
20 км 3/0
[Ci fib]
-9.5 -13.6 72 -14 -14 1042.4 1022.6 -10.6
09 13.11 Ю 2-5
{6}
20 км 3/0
[Cs]
-4.7 -13.5 50 -8 -7 1040.4 1021.2
12 13.11 Ю 2-6
{8}
20 км 4/0
[Ci]
-3.9 -17.1 35 -7 -7 1038.1 1018.9
15 13.11 Ю 2-5
{7}
20 км 8/0
[Cs]
-5.7 -15.9 44 -9 -9 1036.6 1017.3 -3.6
18 13.11 Ю 3-7
{7}
н/о н/о -6.5 -16.4 45 -12 -12 1034.0 1014.6
21 13.11 Ю 3-6
{8}
н/о н/о -5.8 -16.8 41 -11 -11 1031.6 1012.3
00 14.11 Ю 3-7
{10}
н/о н/о -4.1 -17.6 34 -9 -9 1029.2 1010.2
03 14.11 Ю 3-10
{10}
20 км 10/0
[Cs]
-3.3 -18.0 31 -8 -8 1028.3 1009.3 -6.6
06 14.11 Ю 3-7
{10}
20 км 10/1 600 м
[Sc Ac As Cs]
-3.5 -16.2 37 -8 -8 1027.8 1008.8
09 14.11 Ю 2-5
{9}
20 км 10/5 600 м
[Sc Ac As]
-2.5 -10.3 55 -6 -6 1027.9 1009.0
12 14.11 Ю 3-7
{8}
20 км 10/0
[Ac As Cs]
-0.9 -9.2 53 -5 -5 1027.9 1009.1
15 14.11 Ю 2-6
{9}
20 км 9/0
[Ac As]
-2.0 -12.6 44 -5 -5 1028.7 1009.8 -0.5
18 14.11 Ю 2-5
{6}
н/о н/о -3.2 -15.0 40 -6 -6 1030.0 1010.9
21 14.11 Ю 2-4
{7}
н/о н/о -4.0 -14.2 45 -7 -7 1031.4 1012.3
00 15.11 Ю 1-3
{5}
н/о н/о -3.3 -11.7 52 -5 -5 1032.0 1012.9
03 15.11 Ю 2-3
{5}
20 км 10/0
[As op]
-3.2 -8.5 67 -7 -7 1033.7 1014.6 -4.0
06 15.11 ЮЗ 2-4
{5}
20 км 10/0
[Ac As]
-2.8 -8.5 65 -6 -6 1035.2 1016.2
09 15.11 ЮЗ 2-4
{5}
20 км 10/0
[Ac As]
-2.1 -7.1 69 -6 -5 1036.9 1017.8
12 15.11 Ю 1-3
{5}
20 км 10/0
[Ac As]
-1.7 -5.8 74 -4 -4 1038.1 1019.0
15 15.11 Ю 1-3
{5}
20 км 10/0
[Ac As]
-2.0 -4.8 81 -4 -4 1039.3 1020.2 -1.7
18 15.11 Ю 1-3
{4}
н/о н/о -2.0 -4.7 82 -4 -4 1039.8 1020.7
21 15.11 Ю 1-3
{4}
н/о н/о -1.8 -6.0 73 -4 -4 1039.8 1020.7
00 16.11 Ю 1-3
{5}
н/о н/о -1.8 -7.0 68 -4 -4 1039.9 1020.8
03 16.11 Ю 2-4
{5}
20 км 10/5 600 м
[Sc Ac As]
-1.3 -8.9 56 -5 -5 1039.8 1020.8 -2.1
06 16.11 ЮЗ 2-5
{6}
20 км 10/10 600 м
[Sc]
-1.1 -8.6 57 -4 -4 1039.3 1020.4
09 16.11 ЮЗ 3-8
{8}
20 км 10/4 600 м
[Sc Ac As Cs]
+0.5 -5.7 63 -4 -3 1038.1 1019.2
12 16.11 ЮЗ 2-8
{8}
20 км 10/0
[Ac As]
+0.3 -5.2 67 -3 -3 1036.5 1017.6
15 16.11 ЮЗ 3-6
{8}
20 км 10/6 600 м
[Sc As op]
0.0 -4.8 70 -4 -4 1035.3 1016.5 +0.8
18 16.11 ЮЗ 3-6
{8}
н/о н/о 0.0 -3.5 77 -5 -5 1034.5 1015.6
21 16.11 ЮЗ 2-4
{7}
н/о н/о +0.1 -2.8 81 -3 -3 1033.1 1014.3
00 17.11 ЮЗ 2-5
{5}
н/о н/о +0.3 -1.7 86 -3 -3 1031.3 1012.5
03 17.11 ЮЗ 2-4
{5}
20 км 10/0
[As op]
+0.3 -1.7 86 -3 -3 1029.2 1010.4 -0.1
06 17.11 ЮЗ 2-4
{6}
20 км 10/0
[As op]
+0.2 -0.7 94 -4 -4 1026.7 1007.9
09 17.11 ЮЗ 2-5
{7}
20 км {ливн. осадки} 10/6 600 м
[Cb calv As op]
+0.6 -0.2 94 -3 -3 1024.1 1005.6
12 17.11 ЮЗ 2-4
{5}
4000 м слабая морось 10/10 300 м
[St]
+0.7 +0.1 96 -3 -3 1021.2 1002.7
15 17.11 Ю 1-3
{5}
10 км слабый дождь {морось} 10/10 300 м
[Frnb Ns]
+0.4 -0.2 96 -2 -2 1018.9 1000.4 +0.7 0.5
18 17.11 Ю 2-3
{5}
н/о н/о +0.4 -0.1 96 -3 -3 1016.1 997.6
21 17.11 Ю 1-3
{4}
н/о н/о +0.1 -0.3 97 -2 -2 1014.5 996.0
00 18.11 Ю 1-2
{3}
н/о н/о 0.0 -0.4 97 -2 -2 1013.5 995.0
03 18.11 Ю 1-1
{2}
10 км слабый снег 10/10 300 м
[Frnb Ns]
0.0 -0.3 98 -2 -2 1013.6 995.1 0.0 4 2
06 18.11 штиль 0
{2}
4000 м слабый ливневой снег 10/8 600 м
[Cb calv As op]
+0.2 -0.1 98 -1 -1 1014.8 996.3
09 18.11 СЗ 1-2
{3}
10 км слабый снег {ливн. осадки} 10/0
[As op]
+0.6 +0.1 96 -2 -1 1016.5 998.1

 

Местоположение метеостанции Даровское (Кировская область, Россия): широта 58.77 долгота 47.97 высота над уровнем моря 147 м.

В архиве по умолчанию представлена погода в Даровском за последнюю неделю. Архивные данные за месяц целиком и за предыдущие месяцы, начиная с января 2011 года, Вы можете получить, выбрав интересующий диапазон дат из раскрывающегося списка и нажав кнопку "Ввод!".


*Определитесь, кто Вы:
робот инопланетянин человек

Внимание! Время в таблицах - всемирное. Для получения местного времени необходимо прибавить поправку, которая в Даровском равна 3 ч.

Смотрите также архив погоды в соседних городах и на ближайших метеорологических станциях:

Погода в Котельниче (Кировская область, Россия) (57 км)
Погода в Вохме (Костромская область, Россия) (71 км)
Погода в Шабалино (Кировская область, Россия) (72 км)
Погода в Кирове (Кировская область, Россия) (98 км)
Погода в Опарино (Кировская область, Россия) (121 км)
Погода в Пыщуге (Костромская область, Россия) (131 км)
Погода в Кумене (Кировская область, Россия) (136 км)
Погода в Шахунье (Нижегородская область, Россия) (146 км)
Погода в Шарье (Костромская область, Россия) (148 км)
Погода в Яранске (Кировская область, Россия) (156 км)

Пояснения к столбцам:

Ветер - указаны скорость ветра в м/с - средняя за 10 мин, порывы в срок и между сроками (в фигурных скобках) и направление, откуда дует ветер: С - северный, СВ - северо-восточный, В - восточный, ЮВ - юго-восточный, Ю - южный, ЮЗ - юго-западный, З - западный, СЗ - северо-западный.
Видимость - горизонтальная дальность видимости в метрах или километрах. При видимости от 1 до 10 км при отсутствии осадков обычно наблюдается дымка, при ухудшении видимости до 1 км и менее - туман. В сухую погоду видимость может ухудшаться дымом, пылью или мглою.
Явления - указаны атмосферные явления, наблюдавшиеся в срок или в последний час перед сроком; фигурными скобками обозначены явления, наблюдавшиеся между сроками (за 1-3 часа до срока); квадратными скобками обозначены град или гололедные отложения с указанием их диаметра в мм.
Облачность - указаны через наклонную черту общая и нижняя облачность в баллах и высота нижней границы облаков в метрах; квадратными скобками обозначены формы облаков: Ci - перистые, Cs - перисто-слоистые, Cc - перисто-кучевые, Ac - высококучевые, As - высокослоистые, Sc - слоисто-кучевые, Ns - слоисто-дождевые, Cu - кучевые, Cb - кучево-дождевые. Подробнее классификацию облаков см. в Атласе облаков (PDF).
T - Температура воздуха - температура, измеренная на высоте 2 м над землей.
Td - Температура точки росы - температура, при понижении до которой содержащийся в воздухе водяной пар достигнет насыщения.
f - Относительная влажность воздуха - влажноcть воздуха, измеренная на высоте 2 м над землей.
Te - Эффективная температура - температура, которую ощущает одетый по сезону человек в тени. Характеристика душности погоды. При расчете учитывается влияние влажности воздуха и скорости ветра на теплоощущения человека.
Tes - Эффективная температура на солнце - температура, которую ощущает человек, с поправкой на солнечный нагрев. Характеристика знойности погоды. Зависит от высоты солнца над горизонтом, облачности и скорости ветра. Ночью, в пасмурную погоду, а также при ветре 12 м/с и более поправка равна нулю.
P - Атмосферное давление - приведенное к уровню моря атмосферное давление.
Po - Атмосферное давление - измеренное на уровне метеостанции атмосферное давление.
Tmin - Минимальная температура - минимум температуры воздуха на высоте 2 м над землей.
Tmax - Максимальная температура - максимум температуры воздуха на высоте 2 м над землей.
R - Количество осадков - Количество выпавших осадков за период времени, мм. При наведении курсора мыши на число - период времени, за который выпало указанное количество осадков.
R24 - Количество осадков - Количество выпавших осадков за 24 часа, мм.
S - Снежный покров - Высота снежного покрова, см. При наведении курсора мыши на число - состояние снежного покрова и степень покрытия местности в баллах.